Meteo Giornale » Osservazioni meteo Stati Uniti (USA) » Brainerd-Crow Wing Co
ore: 16:53 - Osservazioni Meteo Brainerd-Crow Wing Co
Lat. 46° 24' N Lon. 94° 7' W Alt. 373 metri s.l.m.
28 °C
Sereno
Temp. 24 Ore
19 °C
28 °C
Ovest/Sud-Ovest
13 Km/h
Dew point 13 °C
Umidità 39 %
Visibilità 10 Km
Il sole sorge alle ore 06:35
Il sole tramonta alle ore 19:57
| Data e Ora | Cielo e Fenomeni | T °C | DP °C | Um. % | Pres. hPa | Vis. km | Vento km/h | |
|---|---|---|---|---|---|---|---|---|
| Oggi h: 16:53 | Sereno | 28 | 13 | 39 | 1011 | 10 | O/SO 13 | |
| Oggi h: 15:53 | Sereno | 28 | 13 | 39 | 1012 | 10 | NO 11.1 | |
| Oggi h: 14:53 | Sereno | 27 | 13 | 42 | 1011 | 10 | N 9.3 | |
| Oggi h: 13:53 | Sereno | 27 | 13 | 42 | 1011 | 10 | O/NO 11.1 | |
| Oggi h: 12:53 | Sereno | 26 | 15 | 50 | 1011 | 10 | O/NO 13 | |
| Oggi h: 11:53 | Sereno | 24 | 17 | 64 | 1012 | 10 | O/NO 20.3 | |
| Oggi h: 10:53 | Sereno | 23 | 18 | 73 | 1011 | 10 | O 16.7 | |
| Oggi h: 09:53 | Poco Nuvoloso | 24 | 19 | 73 | 1011 | 10 | O/NO 16.7 | |
| Oggi h: 09:18 | Nuvoloso | 23 | 19 | 78 | 1010 | 14 | O/NO 13 | |
| Oggi h: 08:53 | Molto Nuvoloso | 23 | 21 | 88 | 1010 | 11 | O 13 | |
| Oggi h: 08:07 | Foschia | 22 | 21 | 94 | 1009 | 5 | O 7.4 | |
| Oggi h: 07:53 | Foschia | 22 | 22 | 100 | 1009 | 3 | O 9.3 | |
| Oggi h: 07:34 | Foschia | 22 | 21 | 94 | 1009 | 3 | O 7.4 | |
| Oggi h: 07:25 | Foschia | 22 | 21 | 94 | 1008 | 5 | N 5.5 | |
| Oggi h: 07:07 | Foschia | 22 | 21 | 94 | 1008 | 2 | N 5.5 | |
| Oggi h: 06:53 | Foschia | 21 | 21 | 100 | 1008 | 6 | N 0 | |
| Oggi h: 06:51 | Foschia | 21 | 21 | 100 | 1008 | 6 | N 5.5 | |
| Oggi h: 05:53 | Foschia | 21 | 21 | 100 | 1007 | 6 | N 0 | |
| Oggi h: 04:53 | Foschia | 21 | 21 | 100 | 1007 | 8 | N 0 | |
| Oggi h: 04:45 | Foschia | 21 | 20 | 94 | 1007 | 8 | N 0 | |
| Oggi h: 03:53 | Foschia | 21 | 20 | 94 | 1007 | 8 | N 5.5 | |
| Oggi h: 03:24 | Foschia | 21 | 20 | 94 | 1007 | 8 | N 5.5 | |
| Oggi h: 02:53 | Foschia | 21 | 20 | 94 | 1007 | 8 | N 5.5 | |
| Oggi h: 02:48 | Foschia | 21 | 20 | 94 | 1007 | 8 | N 5.5 | |
| Oggi h: 02:36 | Foschia | 21 | 20 | 94 | 1007 | 8 | N 5.5 | |
| Oggi h: 02:03 | Foschia | 21 | 20 | 94 | 1007 | 10 | N 0 | |
| Oggi h: 01:53 | Foschia | 21 | 20 | 94 | 1007 | 10 | N 5.5 | |
| Oggi h: 00:53 | Nuvoloso | 21 | 20 | 94 | 1007 | 11 | N 0 | |
| Oggi h: 00:51 | Molto Nuvoloso | 21 | 20 | 94 | 1007 | 11 | N 0 | |
| Oggi h: 00:31 | Temporale | 21 | 19 | 88 | 1007 | 13 | SE 14.8 | |
| Ieri h: 23:53 | Molto Nuvoloso | 21 | 19 | 88 | 1008 | 13 | E/SE 13 | |
| Ieri h: 22:53 | Coperto | 20 | 18 | 88 | 1009 | 10 | E/SE 11.1 | |
| Ieri h: 22:43 | Coperto | 20 | 18 | 88 | 1009 | 10 | N 7.4 | |
| Ieri h: 21:53 | Coperto | 19 | 18 | 93 | 1009 | 10 | N 9.3 | |
| Ieri h: 21:19 | Coperto | 20 | 18 | 88 | 1009 | 10 | N 11.1 | |
| Ieri h: 21:10 | Coperto | 20 | 18 | 88 | 1009 | 10 | E 13 | |
| Ieri h: 20:53 | Coperto | 20 | 18 | 88 | 1009 | 10 | N 7.4 | |
| Ieri h: 20:28 | Coperto | 21 | 18 | 82 | 1009 | 10 | E 11.1 | |
| Ieri h: 19:53 | Coperto | 21 | 18 | 82 | 1009 | 10 | E 14.8 | |
| Ieri h: 18:53 | Coperto | 23 | 19 | 78 | 1009 | 10 | N 9.3 | |
| Ieri h: 17:53 | Molto Nuvoloso | 24 | 19 | 73 | 1009 | 10 | E 13 | |



